When you browse on this site, cookies collect data to enhance your experience and personalize the content and advertising you see.
Visit our Privacy Policy to learn more. By continuing to use the site, you agree to this use of cookies and data.
  • In Belgien
  • Länderverzeichnis
  • Für 7 Tage
  • Wassertemperatur
  • Wetterkarte
  • Widgets
  • user-avatar
    Anmelden

    Stündliche Wetter Lemnos

    Heute, 26 Januar, Sonntag

    Zeit Temperatur Niederschläge Wind Luftdruck Luftfeuchtigkeit
    00:00 +11°C° 0 mm 4 m/S 766 mmHg 73%
    01:00 +11°C° 0 mm 4 m/S 766 mmHg 74%
    02:00 +11°C° 0 mm 4 m/S 765 mmHg 74%
    03:00 +11°C° 0 mm 3 m/S 765 mmHg 75%
    04:00 +11°C° 0 mm 3 m/S 765 mmHg 77%
    05:00 +12°C° 0 mm 2 m/S 765 mmHg 78%
    06:00 +12°C° 0 mm 2 m/S 765 mmHg 79%
    07:00 +12°C° 0 mm 2 m/S 765 mmHg 80%
    08:00 +12°C° 0 mm 2 m/S 765 mmHg 81%
    09:00 +13°C° 0 mm 2 m/S 765 mmHg 78%
    10:00 +14°C° 0 mm 2 m/S 765 mmHg 76%
    11:00 +15°C° 0 mm 2 m/S 765 mmHg 73%
    12:00 +14°C° 0 mm 3 m/S 765 mmHg 75%
    13:00 +14°C° 0 mm 3 m/S 764 mmHg 77%
    14:00 +15°C° 0 mm 4 m/S 764 mmHg 79%
    15:00 +14°C° 0 mm 5 m/S 764 mmHg 79%
    16:00 +14°C° 0 mm 5 m/S 764 mmHg 80%
    17:00 +14°C° 0 mm 6 m/S 763 mmHg 80%
    18:00 +14°C° 0 mm 6 m/S 763 mmHg 81%
    19:00 +14°C° 0 mm 6 m/S 763 mmHg 82%
    20:00 +14°C° 0 mm 6 m/S 763 mmHg 83%
    21:00 +14°C° 0 mm 6 m/S 763 mmHg 84%
    22:00 +14°C° 0 mm 5 m/S 763 mmHg 85%
    23:00 +13°C° 0 mm 5 m/S 763 mmHg 86%

    Morgen, 27 Januar, Montag

    Zeit Temperatur Niederschläge Wind Luftdruck Luftfeuchtigkeit
    00:00 +13°C° 0 mm 5 m/S 763 mmHg 86%
    01:00 +13°C° 0 mm 4 m/S 762 mmHg 86%
    02:00 +13°C° 0 mm 4 m/S 762 mmHg 85%
    03:00 +13°C° 0 mm 4 m/S 762 mmHg 87%
    04:00 +13°C° 0 mm 4 m/S 761 mmHg 88%
    05:00 +13°C° 0 mm 4 m/S 761 mmHg 89%
    06:00 +13°C° 0 mm 4 m/S 761 mmHg 88%
    07:00 +13°C° 0 mm 5 m/S 760 mmHg 87%
    08:00 +14°C° 0 mm 6 m/S 760 mmHg 86%
    09:00 +14°C° 0.2 mm 7 m/S 760 mmHg 84%
    10:00 +13°C° 0.2 mm 8 m/S 760 mmHg 82%
    11:00 +15°C° 0.2 mm 9 m/S 760 mmHg 80%
    12:00 +13°C° 1.4 mm 9 m/S 760 mmHg 83%
    13:00 +13°C° 1.4 mm 8 m/S 759 mmHg 87%
    14:00 +12°C° 1.4 mm 8 m/S 758 mmHg 90%
    15:00 +11°C° 1 mm 6 m/S 758 mmHg 91%
    16:00 +12°C° 1 mm 5 m/S 758 mmHg 91%
    17:00 +11°C° 1 mm 3 m/S 757 mmHg 92%
    18:00 +11°C° 0.4 mm 3 m/S 758 mmHg 91%
    19:00 +12°C° 0.4 mm 4 m/S 758 mmHg 90%
    20:00 +12°C° 0.4 mm 4 m/S 758 mmHg 89%
    21:00 +12°C° 0.1 mm 4 m/S 758 mmHg 87%
    22:00 +12°C° 0.1 mm 4 m/S 758 mmHg 85%
    23:00 +12°C° 0.1 mm 4 m/S 758 mmHg 82%

    übermorgen, 28 Januar, Dienstag

    Zeit Temperatur Niederschläge Wind Luftdruck Luftfeuchtigkeit
    00:00 +12°C° 0 mm 4 m/S 758 mmHg 81%
    01:00 +12°C° 0 mm 4 m/S 758 mmHg 80%
    02:00 +12°C° 0 mm 3 m/S 758 mmHg 79%
    03:00 +12°C° 0 mm 3 m/S 758 mmHg 79%
    04:00 +11°C° 0 mm 3 m/S 758 mmHg 79%
    05:00 +11°C° 0 mm 3 m/S 758 mmHg 79%
    06:00 +12°C° 0 mm 2 m/S 758 mmHg 79%
    07:00 +12°C° 0 mm 2 m/S 758 mmHg 79%
    08:00 +12°C° 0 mm 1 m/S 758 mmHg 79%
    09:00 +12°C° 0 mm 1 m/S 758 mmHg 78%
    10:00 +13°C° 0 mm 1 m/S 758 mmHg 76%
    11:00 +13°C° 0 mm 1 m/S 759 mmHg 75%
    12:00 +14°C° 0 mm 2 m/S 758 mmHg 72%
    13:00 +14°C° 0 mm 2 m/S 758 mmHg 69%
    14:00 +13°C° 0 mm 3 m/S 758 mmHg 66%
    15:00 +13°C° 0 mm 3 m/S 757 mmHg 67%
    16:00 +13°C° 0 mm 4 m/S 757 mmHg 68%
    17:00 +13°C° 0 mm 4 m/S 757 mmHg 69%
    18:00 +13°C° 0 mm 5 m/S 757 mmHg 72%
    19:00 +12°C° 0 mm 5 m/S 757 mmHg 74%
    20:00 +11°C° 0 mm 6 m/S 757 mmHg 77%
    21:00 +11°C° 0 mm 6 m/S 757 mmHg 78%
    22:00 +11°C° 0 mm 6 m/S 757 mmHg 79%
    23:00 +11°C° 0 mm 7 m/S 757 mmHg 79%

    29 Januar, Mittwoch

    Zeit Temperatur Niederschläge Wind Luftdruck Luftfeuchtigkeit
    00:00 +11°C° 0 mm 7 m/S 756 mmHg 79%
    01:00 +13°C° 0 mm 6 m/S 756 mmHg 79%
    02:00 +13°C° 0 mm 6 m/S 756 mmHg 78%
    03:00 +12°C° 0 mm 7 m/S 755 mmHg 77%
    04:00 +12°C° 0 mm 7 m/S 755 mmHg 76%
    05:00 +12°C° 0 mm 8 m/S 755 mmHg 75%
    06:00 +12°C° 0 mm 7 m/S 755 mmHg 74%
    07:00 +12°C° 0 mm 7 m/S 755 mmHg 74%
    08:00 +12°C° 0 mm 7 m/S 755 mmHg 73%
    09:00 +14°C° 0 mm 7 m/S 755 mmHg 72%
    10:00 +13°C° 0 mm 8 m/S 755 mmHg 70%
    11:00 +15°C° 0 mm 8 m/S 755 mmHg 68%
    12:00 +15°C° 0 mm 8 m/S 754 mmHg 67%
    13:00 +15°C° 0 mm 8 m/S 754 mmHg 66%
    14:00 +15°C° 0 mm 7 m/S 754 mmHg 65%
    15:00 +15°C° 0.1 mm 7 m/S 754 mmHg 68%
    16:00 +14°C° 0.1 mm 6 m/S 754 mmHg 71%
    17:00 +14°C° 0.1 mm 5 m/S 754 mmHg 74%
    18:00 +14°C° 0.2 mm 4 m/S 754 mmHg 74%
    19:00 +14°C° 0.2 mm 4 m/S 754 mmHg 74%
    20:00 +13°C° 0.2 mm 3 m/S 755 mmHg 74%
    21:00 +13°C° 0.2 mm 3 m/S 755 mmHg 74%
    22:00 +13°C° 0.2 mm 3 m/S 755 mmHg 73%
    23:00 +13°C° 0.2 mm 3 m/S 755 mmHg 73%

    30 Januar, Donnerstag

    Zeit Temperatur Niederschläge Wind Luftdruck Luftfeuchtigkeit
    00:00 +13°C° 0.2 mm 3 m/S 755 mmHg 73%
    01:00 +13°C° 0.2 mm 4 m/S 755 mmHg 74%
    02:00 +13°C° 0.2 mm 4 m/S 754 mmHg 74%
    03:00 +13°C° 0.1 mm 3 m/S 754 mmHg 73%
    04:00 +13°C° 0.1 mm 3 m/S 754 mmHg 71%
    05:00 +14°C° 0.1 mm 2 m/S 754 mmHg 69%
    06:00 +13°C° 0.1 mm 2 m/S 755 mmHg 69%
    07:00 +12°C° 0.1 mm 3 m/S 755 mmHg 68%
    08:00 +12°C° 0.1 mm 3 m/S 755 mmHg 68%
    09:00 +12°C° 0.2 mm 4 m/S 756 mmHg 70%
    10:00 +12°C° 0.2 mm 4 m/S 756 mmHg 72%
    11:00 +12°C° 0.2 mm 5 m/S 756 mmHg 74%
    12:00 +11°C° 0.1 mm 6 m/S 756 mmHg 68%
    13:00 +11°C° 0.1 mm 6 m/S 756 mmHg 63%
    14:00 +11°C° 0.1 mm 7 m/S 756 mmHg 57%
    15:00 +10°C° 0 mm 6 m/S 756 mmHg 59%
    16:00 +10°C° 0 mm 6 m/S 756 mmHg 60%
    17:00 +10°C° 0 mm 6 m/S 756 mmHg 62%
    18:00 +9°C° 0.5 mm 8 m/S 756 mmHg 62%
    19:00 +8°C° 0.5 mm 10 m/S 757 mmHg 63%
    20:00 +8°C° 0.5 mm 12 m/S 757 mmHg 63%
    21:00 +7°C° 1.7 mm 12 m/S 758 mmHg 67%
    22:00 +5°C° 1.7 mm 13 m/S 759 mmHg 71%
    23:00 +4°C° 1.7 mm 13 m/S 760 mmHg 75%

    31 Januar, Freitag

    Zeit Temperatur Niederschläge Wind Luftdruck Luftfeuchtigkeit
    00:00 +4°C° 0.1 mm 11 m/S 760 mmHg 69%
    01:00 +6°C° 0.1 mm 10 m/S 760 mmHg 63%
    02:00 +6°C° 0.1 mm 9 m/S 761 mmHg 58%
    03:00 +6°C° 0 mm 8 m/S 761 mmHg 56%
    04:00 +6°C° 0 mm 7 m/S 761 mmHg 55%
    05:00 +8°C° 0 mm 7 m/S 761 mmHg 53%
    06:00 +8°C° 0 mm 6 m/S 762 mmHg 50%
    07:00 +8°C° 0 mm 6 m/S 762 mmHg 48%
    08:00 +8°C° 0 mm 6 m/S 762 mmHg 45%
    09:00 +8°C° 0 mm 5 m/S 763 mmHg 43%
    10:00 +8°C° 0 mm 4 m/S 763 mmHg 42%
    11:00 +9°C° 0 mm 3 m/S 764 mmHg 41%
    12:00 +9°C° 0 mm 2 m/S 763 mmHg 40%
    13:00 +9°C° 0 mm 2 m/S 763 mmHg 40%
    14:00 +10°C° 0 mm 1 m/S 763 mmHg 39%
    15:00 +10°C° 0 mm 1 m/S 763 mmHg 41%
    16:00 +10°C° 0 mm 1 m/S 763 mmHg 43%
    17:00 +10°C° 0 mm 1 m/S 763 mmHg 46%
    18:00 +9°C° 0 mm 2 m/S 763 mmHg 46%
    19:00 +8°C° 0 mm 2 m/S 763 mmHg 47%
    20:00 +8°C° 0 mm 2 m/S 763 mmHg 47%
    21:00 +8°C° 0 mm 2 m/S 763 mmHg 47%
    22:00 +8°C° 0 mm 2 m/S 763 mmHg 47%
    23:00 +8°C° 0 mm 2 m/S 763 mmHg 47%
    Mehr zeigen